Miscellaneous Local Product
Issued by NWS North Platte, NE

Home | Current Version | Previous Version | Text Only | Print | Product List | Glossary On
Versions: 1 2 3 4 5 6 7 8 9 10 11 12 13 14 15 16 17 18 19 20 21 22 23 24 25 26 27 28 29 30 31 32 33 34 35 36 37 38 39 40 41 42 43 44 45 46 47 48 49 50
000
AXUS43 KLBF 240610
MISLBF


WESTERN AND NORTH CENTRAL NEBRASKA HOURLY WEATHER ROUNDUP
NATIONAL WEATHER SERVICE NORTH PLATTE NE
1200 AM CST WED JAN 24 2018

NOTE: "FAIR" INDICATES FEW OR NO CLOUDS BELOW 12,000 FEET WITH NO
SIGNIFICANT WEATHER AND/OR OBSTRUCTIONS TO VISIBILITY.

NOTE: STATIONS NOT REPORTING VARIABLES SUCH AS SKY/WEATHER OR
PRESSURE ARE PROVIDED BY RAWS AND APRS NETWORKS AND ARE NOT UNDER
NATIONAL WEATHER SERVICE QUALITY CONTROL.

...OBSERVATIONS IN AND NEAR THE EASTERN PANHANDLE OF NEBRASKA...

CITY           SKY/WX    TMP DP  RH WIND       PRES   REMARKS
PINE RIDGE     CLEAR     14   9  80 CALM      30.21F
GORDON         FAIR      14   8  78 W5        30.20S WCI   6
CHADRON        CLEAR      9   5  84 CALM      30.22F
ALLIANCE       CLEAR      5   3  91 SW7       30.22F WCI  -7
SIDNEY         CLEAR     13   8  81 SW12      30.25F WCI  -1
CRESCENT LAKE    N/A     17  11  75 CALM        N/A
$$

...OBSERVATIONS IN NORTHERN NEBRASKA AND FAR SOUTHERN SOUTH DAKOTA...

CITY           SKY/WX    TMP DP  RH WIND       PRES   REMARKS
WINNER         FAIR      27  19  72 SW8       30.21R WCI  19
VALENTINE      CLEAR     21  16  81 SW9       30.23R WCI  11
AINSWORTH      CLEAR     22  18  84 W7        30.22S WCI  14
O`NEILL        CLEAR     26  22  84 NW8       30.22R WCI  18
THEDFORD       CLEAR     20  15  82 W7        30.25S WCI  11
BROKEN BOW     CLEAR     29  18  63 NW16      30.24R WCI  17
ORD            CLEAR     28  20  71 W9        30.23R WCI  19
ALBION         CLEAR     27  21  79 NW9       30.22R WCI  18
VALENTINE NWR    N/A     25  17  70 W9          N/A  WCI  16
HALSEY           N/A     25  16  67 W8          N/A  WCI  16
BUTTE            N/A     25  21  84 W6          N/A  WCI  18
CHAMBERS         N/A     27  20  75 N3          N/A
EWING            N/A     25  22  87 W8          N/A  WCI  16
$$

...OBSERVATIONS IN SOUTHWEST NEBRASKA AND FAR NORTHEAST COLORADO...

CITY           SKY/WX    TMP DP  RH WIND       PRES   REMARKS
WRAY           FAIR      14  10  85 W7        30.31S WCI   4
HOLYOKE        FAIR      14   9  79 W8        30.30S WCI   3
IMPERIAL       CLEAR     19  13  77 W8        30.29F WCI   9
OGALLALA       CLEAR     19  13  76 SW7       30.27S WCI  10
NORTH PLATTE   CLEAR      9   7  92 NW8       30.28S WCI  -3
MCCOOK         CLEAR     25  18  74 W15       30.31R WCI  13
LEXINGTON      CLEAR     22  17  81 NW10      30.28S WCI  11
STAPLETON        N/A     21  16  81 CALM        N/A
$$

...OBSERVATIONS IN CENTRAL LINCOLN COUNTY AREA...

CITY           SKY/WX    TMP DP  RH WIND       PRES   REMARKS
N.P. AIRPORT   CLEAR      9   7  92 NW8       30.28S WCI  -3
N.P. DOWNTOWN    N/A     18  15  86 CALM        N/A
N.P. SOUTHEAST   N/A     21  16  81 CALM        N/A
N.P. HILLCREST   N/A     20  17  86 W5          N/A  WCI  14
$$

...SOME OBSERVATIONS FROM AROUND THE REGION...

CITY           SKY/WX    TMP DP  RH WIND       PRES   REMARKS
DENVER         CLEAR     18   7  62 S15       30.24F WCI   4
BERTHOUD PASS  FAIR       3  -8  60 NW39G48   30.17R WCI -24
GRAND JUNCTION CLEAR     23  18  81 E7        30.41R WCI  15
LARAMIE        PTCLDY    18   7  62 SW20      30.17F WCI   2
CHEYENNE       CLEAR     21  14  74 W17       30.20F WCI   7
CASPER         CLEAR     24  15  68 SW21      30.15F WCI   9
BISMARCK       PTCLDY    10   8  92 NE7       30.14F WCI  -1
RAPID CITY     CLEAR     25  14  63 CALM      30.15F
PIERRE         CLEAR     25  21  85 W7        30.17F WCI  17
SIOUX FALLS    FOG       22  22 100 CALM      30.18F VSB 1/4
OMAHA          CLEAR     21  19  92 SE3       30.23S
GRAND ISLAND   CLEAR     24  21  88 W13       30.25R WCI  12
SCOTTSBLUFF    CLEAR     12   8  84 S6        30.24S WCI   3
KANSAS CITY    PTCLDY    27  24  89 SW6       30.25S WCI  20
HILL CITY      CLEAR     25  21  85 W6        30.33S WCI  18
WICHITA        CLEAR     29  22  75 NW5       30.33R WCI  24
DODGE CITY     CLEAR     27  18  69 W9        30.36R WCI  18
OKLAHOMA CITY  CLEAR     36  15  42 CALM      30.35R
DALLAS         PTCLDY    41  24  51 N5        30.34S
AMARILLO       CLEAR     31  11  43 E5        30.38R WCI  26
$$




USA.gov is the U.S. government's official web portal to all federal, state and local government web resources and services.